Stations météo

Publicité
Solenzara, France (7765): Température de l'air & dewpoint: 13.03.2019 16:00:00 - 19.03.2019 16:00:00 (CET)Solenzara, France (7765): Température de l'air 5cm: 13.03.2019 16:00:00 - 19.03.2019 16:00:00 (CET)Solenzara, France (7765): Température de l'air -20cm: 13.03.2019 16:00:00 - 19.03.2019 16:00:00 (CET)Solenzara, France (7765): Vitesse du vent & gusts: 13.03.2019 16:00:00 - 19.03.2019 16:00:00 (CET)Solenzara, France (7765): Direction du vent: 13.03.2019 16:00:00 - 19.03.2019 16:00:00 (CET)Solenzara, France (7765): reduced air pressure: 13.03.2019 16:00:00 - 19.03.2019 16:00:00 (CET)Solenzara, France (7765): visibility: 13.03.2019 16:00:00 - 19.03.2019 16:00:00 (CET)Solenzara, France (7765): Ensoleillement: 13.03.2019 16:00:00 - 19.03.2019 16:00:00 (CET)Solenzara, France (7765): Quantités de précipitations: 13.03.2019 16:00:00 - 19.03.2019 16:00:00 (CET)
Date & Time tt [°C] td [°C] tt 5cm [°C] tt -20cm [°C] ff [km/h] ff [knt] fx [km/h] fx [knt] dd ppp [hPa] vv [km] sd [min] rr [mm]
19.03.2019 16:00:00 13,4 4,3 13,5 14,4 37 20 59 32 NE 1019,0 20 56 0,0
19.03.2019 15:00:00 13,3 5,2 16,2 14,3 40 21 59 32 NE 1018,8 20 60 0,0
19.03.2019 14:00:00 13,8 5,4 19,4 14,2 35 19 50 27 NE 1018,8 20 60 0,0
19.03.2019 13:00:00 13,9 6,0 19,5 14,1 36 20 50 27 NE 1019,1 20 60 0,0
19.03.2019 12:00:00 14,0 5,4 15,0 14,0 33 18 45 24 NE 1019,5 20 46 0,0
19.03.2019 11:00:00 13,7 4,8 15,7 14,0 29 16 45 24 NNE 1019,3 20 56 0,0
19.03.2019 10:00:00 13,7 4,6 16,2 14,1 31 17 46 25 NNE 1019,1 20 60 0,0
19.03.2019 09:00:00 12,5 4,0 11,2 14,2 22 12 31 17 N 1018,8 20 58 0,0
19.03.2019 08:00:00 10,9 3,7 7,9 14,4 19 10 26 14 N 1018,3 20 55 0,0
19.03.2019 07:00:00 9,1 2,0 5,1 14,5 15 8 22 12 N 1017,7 20 18 0,0
19.03.2019 06:00:00 7,3 0,3 4,8 14,6 11 6 17 9 WNW 1017,2 20 0 0,0
19.03.2019 05:00:00 7,5 0,0 5,2 14,8 7 4 16 9 WNW 1016,7 20 0 0,0
19.03.2019 04:00:00 7,8 -0,7 5,9 15,0 12 7 19 10 W 1016,3 20 0 0,0
19.03.2019 03:00:00 7,9 -0,6 5,3 15,1 11 6 18 10 W 1016,1 20 0 0,0
19.03.2019 02:00:00 8,2 -0,8 6,0 15,3 9 5 18 10 W 1016,2 20 0 0,0
19.03.2019 01:00:00 8,7 -1,4 3,0 15,4 9 5 16 9 W 1016,3 20 0 0,0
19.03.2019 00:00:00 8,1 -0,9 3,1 15,5 3 2 15 8 NNE 1016,6 20 0 0,0
18.03.2019 23:00:00 9,6 -2,1 5,2 15,6 11 6 16 9 N 1016,1 20 0 0,0
18.03.2019 22:00:00 9,7 2,3 5,7 15,6 9 5 13 7 W 1015,6 20 0 0,0
18.03.2019 21:00:00 11,8 4,5 6,4 15,7 2 1 10 5 NNE 1015,3 20 0 0,0
18.03.2019 20:00:00 13,4 3,5 11,6 15,6 5 3 13 7 W 1014,6 20 0 0,0
18.03.2019 19:00:00 13,1 5,3 11,6 15,6 4 2 23 13 NW 1014,3 20 0 0,0
18.03.2019 18:00:00 13,8 5,4 13,4 15,5 17 9 29 16 NNE 1013,9 20 0 0,0
18.03.2019 17:00:00 14,8 6,9 15,8 15,4 22 12 32 17 E 1013,0 20 43 0,0
18.03.2019 16:00:00 15,6 7,9 19,3 15,2 19 10 28 15 E 1012,8 20 16 0,0
18.03.2019 15:00:00 15,6 8,3 19,1 15,0 13 7 26 14 ESE 1012,5 20 33 0,0
18.03.2019 14:00:00 16,1 9,3 21,7 14,8 17 9 29 16 SSE 1012,4 20 60 0,0
18.03.2019 13:00:00 16,4 9,1 23,2 14,6 19 10 28 15 SSE 1012,8 20 60 0,0
18.03.2019 12:00:00 17,0 9,2 24,6 14,5 17 9 28 15 SE 1012,6 20 60 0,0
18.03.2019 11:00:00 17,4 8,0 22,7 14,4 19 11 37 20 ESE 1012,6 19 60 0,0
18.03.2019 10:00:00 16,3 0,8 22,4 14,5 11 6 26 14 N 1012,2 19 60 0,0
18.03.2019 09:00:00 15,7 9,4 15,5 14,6 10 5 38 21 SSW 1011,4 20 60 0,0
18.03.2019 08:00:00 15,9 -0,4 8,8 14,7 16 8 36 19 NW 1010,9 20 60 0,0
18.03.2019 07:00:00 9,6 8,2 6,9 14,8 9 5 17 9 NNW 1010,8 20 15 0,0
18.03.2019 06:00:00 8,6 7,1 6,9 14,9 9 5 17 9 W 1010,9 20 0 0,0
18.03.2019 05:00:00 8,8 7,1 7,0 15,1 9 5 15 8 W 1011,2 20 0 0,0
18.03.2019 04:00:00 9,5 7,1 7,1 15,1 4 2 16 8 WNW 1011,5 20 0 0,0
18.03.2019 03:00:00 9,8 7,7 7,5 15,2 10 5 13 7 W 1011,6 20 0 0,0
18.03.2019 02:00:00 9,5 7,8 7,6 15,3 8 4 14 8 W 1011,9 20 0 0,0
18.03.2019 01:00:00 9,7 7,8 7,9 15,4 8 4 15 8 W 1012,1 20 0 0,0
18.03.2019 00:00:00 10,5 8,4 7,8 15,5 8 4 16 9 W 1012,2 20 0 0,0
17.03.2019 23:00:00 11,1 9,2 8,2 15,5 7 4 13 7 W 1012,6 20 0 0,0
17.03.2019 22:00:00 12,8 11,0 8,8 15,6 5 3 9 5 NNW 1012,7 19 0 0,0
17.03.2019 21:00:00 13,5 11,2 12,2 15,5 0 0 16 9 N 1013,2 19 0 0,0
17.03.2019 20:00:00 13,8 11,8 13,5 15,5 10 5 20 11 SSE 1013,6 19 0 0,0
17.03.2019 19:00:00 13,9 11,4 13,8 15,5 13 7 22 12 SSE 1014,1 20 0 0,0
17.03.2019 18:00:00 14,0 11,0 14,1 15,4 18 10 29 16 SSE 1014,2 20 0 0,0
17.03.2019 17:00:00 14,5 11,1 15,2 15,2 21 12 32 17 SSE 1014,4 20 56 0,0
17.03.2019 16:00:00 15,5 11,3 18,9 15,1 23 13 32 17 SSE 1014,8 20 60 0,0
17.03.2019 15:00:00 15,5 10,0 21,3 14,9 20 11 31 17 SSE 1015,3 20 60 0,0
17.03.2019 14:00:00 16,1 9,7 23,7 14,8 23 13 32 17 SSE 1015,7 20 60 0,0
17.03.2019 13:00:00 16,2 9,6 21,5 14,7 19 11 27 15 SSE 1016,4 20 53 0,0
17.03.2019 12:00:00 15,7 10,2 21,4 14,6 16 9 24 13 SSE 1017,0 19 41 0,0
17.03.2019 11:00:00 15,7 10,2 19,6 14,6 14 8 21 11 SSE 1017,5 20 17 0,0
17.03.2019 10:00:00 15,0 9,8 16,9 14,6 8 5 12 7 SE 1018,0 20 0 0,0
17.03.2019 09:00:00 13,9 8,9 14,6 14,7 2 1 6 4 E 1018,0 20 0 0,0
17.03.2019 08:00:00 13,4 8,7 12,2 14,7 0 0 9 5 N 1017,9 20 0 0,0
17.03.2019 07:00:00 12,6 8,1 11,7 14,7 2 1 6 3 W 1017,7 20 0 0,0
17.03.2019 06:00:00 12,6 9,1 12,0 14,8 3 2 9 5 NNW 1017,5 20 0 0,0
17.03.2019 05:00:00 12,8 8,1 12,2 14,8 4 2 9 5 W 1017,5 20 0 0,0
17.03.2019 04:00:00 13,0 8,3 12,3 14,8 5 3 12 7 W 1017,5 20 0 0,0
17.03.2019 03:00:00 13,0 8,3 12,3 14,9 5 3 9 5 WNW 1018,0 20 0 0,0
17.03.2019 02:00:00 13,4 9,8 12,5 15,0 0 0 5 3 N 1018,4 20 0 0,0
17.03.2019 01:00:00 13,4 9,6 12,7 15,0 3 1 6 4 WNW 1018,6 20 0 0,0
17.03.2019 00:00:00 13,4 10,0 12,5 15,0 3 2 7 4 WNW 1018,8 20 0 0,0
16.03.2019 23:00:00 13,6 10,2 12,5 15,0 0 0 5 3 N 1019,2 18 0 0,0
16.03.2019 22:00:00 13,6 10,2 11,7 15,1 2 1 4 2 WNW 1019,0 19 0 0,0
16.03.2019 21:00:00 13,6 10,2 12,7 15,0 4 2 6 3 N 1018,6 19 0 0,0
16.03.2019 20:00:00 14,0 10,6 13,2 15,0 2 1 8 4 NNW 1018,5 19 0 0,0
16.03.2019 19:00:00 13,9 9,9 13,0 14,9 0 0 6 3 N 1018,0 20 0 0,0
16.03.2019 18:00:00 14,5 10,1 14,5 14,7 4 2 9 5 SSE 1017,5 20 54 0,0
16.03.2019 17:00:00 15,7 10,2 17,0 14,6 3 2 14 7 E 1017,4 20 60 0,0
16.03.2019 16:00:00 15,9 10,2 20,3 14,4 8 5 16 8 SE 1017,1 19 60 0,0
16.03.2019 15:00:00 16,5 10,3 23,1 14,1 8 4 16 9 E 1017,2 18 55 0,0
16.03.2019 14:00:00 15,6 9,7 23,5 13,9 10 5 20 11 E 1017,3 19 49 0,0
16.03.2019 13:00:00 16,3 10,6 24,3 13,7 12 7 21 11 E 1018,0 18 47 0,0
16.03.2019 12:00:00 15,6 10,1 23,5 13,6 12 6 22 12 E 1018,0 19 58 0,0
16.03.2019 11:00:00 16,0 10,3 22,6 13,6 13 7 20 11 E 1017,5 17 60 0,0
16.03.2019 10:00:00 15,3 10,1 21,0 13,7 11 6 16 9 NE 1017,8 18 60 0,0
16.03.2019 09:00:00 14,7 9,9 12,6 13,7 5 3 18 10 N 1017,4 19 57 0,0
16.03.2019 08:00:00 11,7 9,1 7,7 13,8 7 4 15 8 N 1017,4 20 34 0,0
16.03.2019 07:00:00 8,9 5,8 5,9 14,0 10 5 16 9 W 1016,9 20 0 0,0
16.03.2019 06:00:00 8,1 5,0 3,8 14,1 11 6 14 8 W 1016,5 20 0 0,0
16.03.2019 05:00:00 8,5 4,7 4,6 14,2 5 3 10 5 WNW 1016,0 20 0 0,0
16.03.2019 04:00:00 9,1 4,7 5,9 14,3 4 2 14 8 WNW 1015,7 20 0 0,0
16.03.2019 03:00:00 9,4 6,1 5,8 14,4 7 4 13 7 WNW 1016,0 20 0 0,0
16.03.2019 02:00:00 10,5 6,3 8,5 14,5 10 5 16 9 W 1016,3 20 0 0,0
16.03.2019 01:00:00 10,5 6,4 8,1 14,6 10 5 18 10 W 1016,5 20 0 0,0
16.03.2019 00:00:00 10,7 6,6 8,9 14,7 10 6 18 10 W 1016,5 20 0 0,0
15.03.2019 23:00:00 10,8 7,1 8,8 14,7 9 5 16 8 W 1016,6 20 0 0,0
15.03.2019 22:00:00 11,0 7,5 9,1 14,8 9 5 14 8 W 1016,3 20 0 0,0
15.03.2019 21:00:00 11,5 8,0 9,5 14,8 8 4 14 8 W 1016,1 20 0 0,0
15.03.2019 20:00:00 11,9 8,7 8,1 14,7 8 4 11 6 W 1015,7 20 0 0,0
15.03.2019 19:00:00 12,9 9,5 8,7 14,6 3 2 18 10 SSW 1015,0 20 0 0,0
15.03.2019 18:00:00 14,4 11,2 13,6 14,5 10 5 29 16 NE 1014,4 20 54 0,0
15.03.2019 17:00:00 15,4 11,6 15,9 14,3 18 10 28 15 NE 1013,5 20 60 0,0
15.03.2019 16:00:00 17,3 9,0 21,3 14,1 14 7 20 11 ENE 1013,1 20 53 0,0
15.03.2019 15:00:00 17,3 7,6 24,1 13,9 10 5 16 9 E 1013,3 20 60 0,0
15.03.2019 14:00:00 17,7 6,2 23,4 13,7 6 4 14 8 ENE 1013,5 20 52 0,0
15.03.2019 13:00:00 17,4 7,2 24,7 13,6 7 4 14 8 NE 1014,0 20 56 0,0
15.03.2019 12:00:00 16,5 7,7 24,2 13,4 6 3 12 7 E 1014,2 20 52 0,0
15.03.2019 11:00:00 16,3 9,0 21,6 13,4 8 5 15 8 ESE 1013,9 20 60 0,0
15.03.2019 10:00:00 16,1 7,8 21,1 13,5 6 3 14 8 SE 1014,0 20 60 0,0
15.03.2019 09:00:00 15,1 6,6 11,3 13,6 4 2 9 5 ENE 1013,5 1,4 60 0,0
15.03.2019 08:00:00 11,0 6,5 6,1 13,7 2 1 10 6 NNW 1012,8 20 52 0,0
15.03.2019 07:00:00 8,0 4,0 2,9 13,8 4 2 13 7 WNW 1012,4 20 15 0,0
15.03.2019 06:00:00 7,4 3,6 3,2 13,9 3 2 15 8 W 1011,8 20 0 0,0
15.03.2019 05:00:00 8,5 5,1 2,6 14,0 6 4 14 7 N 1011,6 20 0 0,0
15.03.2019 04:00:00 8,2 4,6 4,6 14,1 4 2 11 6 W 1011,6 20 0 0,0
15.03.2019 03:00:00 9,7 6,0 7,2 14,2 7 4 12 7 WSW 1012,1 20 0 0,0
15.03.2019 02:00:00 10,4 6,2 6,6 14,3 6 4 13 7 W 1012,5 20 0 0,0
15.03.2019 01:00:00 11,6 6,3 8,9 14,3 8 5 23 12 SW 1012,5 20 0 0,0
15.03.2019 00:00:00 12,6 5,7 11,1 14,4 15 8 50 27 SW 1012,4 20 0 0,0
14.03.2019 23:00:00 13,6 3,4 11,4 14,4 13 7 36 20 SW 1012,4 20 0 0,0
14.03.2019 22:00:00 14,9 2,4 12,8 14,5 14 7 40 21 W 1012,1 20 0 0,0
14.03.2019 21:00:00 14,6 1,8 12,4 14,5 17 9 42 23 W 1012,3 20 0 0,0
14.03.2019 20:00:00 14,1 1,4 12,0 14,5 15 8 40 22 W 1012,3 20 0 0,0
14.03.2019 19:00:00 13,9 0,2 12,4 14,4 14 8 43 23 W 1012,5 20 0 0,0
14.03.2019 18:00:00 14,1 1,0 13,4 14,2 21 12 45 24 W 1012,5 20 34 0,0
14.03.2019 17:00:00 15,5 0,5 16,5 14,1 23 12 54 29 W 1012,9 20 60 0,0
14.03.2019 16:00:00 15,9 0,0 18,2 13,8 28 15 52 28 W 1013,1 20 60 0,0
14.03.2019 15:00:00 18,3 -2,1 23,6 13,6 18 10 40 22 W 1013,5 20 60 0,0
14.03.2019 14:00:00 18,5 5,3 26,9 13,3 18 10 32 18 SE 1014,1 20 60 0,0
14.03.2019 13:00:00 18,7 1,7 26,0 13,1 18 10 26 14 SE 1015,1 20 60 0,0
14.03.2019 12:00:00 18,3 -1,6 24,7 13,0 20 11 28 15 SSE 1015,7 20 60 0,0
14.03.2019 11:00:00 16,5 5,1 23,8 13,0 12 6 20 11 SSE 1016,5 20 60 0,0
14.03.2019 10:00:00 16,8 -2,8 20,3 13,0 10 5 16 9 SSE 1016,6 20 60 0,0
14.03.2019 09:00:00 14,2 0,1 11,5 13,1 7 4 14 7 N 1016,6 20 60 0,0
14.03.2019 08:00:00 11,1 -3,1 3,3 13,3 8 4 18 10 W 1016,4 20 60 0,0
14.03.2019 07:00:00 7,4 -2,1 2,2 13,4 4 2 16 9 W 1016,2 20 18 0,0
14.03.2019 06:00:00 10,2 -1,8 5,7 13,5 11 6 21 12 W 1015,4 20 0 0,0
14.03.2019 05:00:00 9,6 -2,1 4,7 13,5 8 4 21 11 WNW 1015,4 20 0 0,0
14.03.2019 04:00:00 9,0 -2,3 6,3 13,6 8 4 22 12 WNW 1014,9 20 0 0,0
14.03.2019 03:00:00 10,6 -4,3 6,1 13,7 13 7 20 11 NNW 1014,7 20 0 0,0
14.03.2019 02:00:00 11,6 -0,6 9,0 13,8 9 5 26 14 W 1014,5 20 0 0,0
14.03.2019 01:00:00 12,6 0,0 10,7 13,8 15 8 35 19 W 1014,1 20 0 0,0
14.03.2019 00:00:00 12,8 -0,1 10,7 13,9 18 10 35 19 W 1013,3 20 0 0,0
13.03.2019 23:00:00 12,8 -1,2 10,7 13,9 15 8 35 19 WNW 1012,6 20 0 0,0
13.03.2019 22:00:00 12,5 1,5 11,4 13,9 21 11 40 22 W 1012,2 20 0 0,0
13.03.2019 21:00:00 13,4 0,4 11,5 13,9 12 7 39 21 WNW 1013,1 20 0 0,0
13.03.2019 20:00:00 13,6 -0,8 11,6 13,9 11 6 45 24 WNW 1012,1 20 0 0,0
13.03.2019 19:00:00 13,8 -1,4 12,5 13,9 18 10 71 39 W 1011,3 20 0 0,0
13.03.2019 18:00:00 14,0 -1,6 12,9 13,8 26 14 65 35 W 1010,1 20 42 0,0
13.03.2019 17:00:00 17,4 -7,9 17,1 13,7 32 17 74 40 W 1009,3 20 60 0,0
13.03.2019 16:00:00 19,1 -3,8 18,7 13,6 15 8 49 26 NW 1009,8 20 50 0,0

tt = Température de l'air
td = dewpoint
tt 5cm = Température de l'air 5cm
tt -20cm = Température de l'air -20cm
ff = Vitesse du vent
fx = gusts
dd = Direction du vent
ppp = reduced air pressure
vv = visibility
sd = Ensoleillement
rr = Quantités de précipitations

stations d'obs. à proximité